Home > Weather > Davos > Past weeks

Flag for Switzerland Past Weather in Davos, Graubünden, Switzerland — Yesterday and Last 2 Weeks

Now
72 °F

Mild.


Feels Like: 75 °F
Forecast: 50 / 64 °F
Wind: 8 mph from South

Location: Chur

Current Time: Aug 29, 2016 at 12:42:41 AM

Latest Report: Aug 29, 2016 at 12:00 AM


Visibility: N/A

Pressure: 30.07 "Hg (25.16 "Hg at 1540m altitude)

Humidity: 69%

Dew Point: 61 °F

Location of DavosLocation

Past Weather in Davos — Graph

°F

Davos Temperature Yesterday

Maximum temperature yesterday: 87 °F (at 3:00 PM)
Minimum temperature yesterday: 64 °F (at 6:00 AM)
Average temperature yesterday: 74 °F

High & Low Weather Summary for the Past Weeks

 TemperatureHumidityPressure
High88 °F (Aug 26, 4:00 PM)98% (Aug 17, 5:00 AM)30.43 "Hg (Aug 17, 5:00 AM)
Low52 °F (Aug 22, 8:00 AM)36% (Aug 28, 5:00 PM)29.76 "Hg (Aug 18, 3:00 PM)
Average68 °F72%30.07 "Hg
* Reported Aug 14 12:00 AM — Aug 28 11:00 PM, Davos, Weather by CustomWeather, © 2016

Note: Actual official high and low records may vary slightly from our data, if they occured in-between our weather recording intervals... More about our weather records

Advertising

Davos Weather History for the Previous 24 Hours

Scroll right to see more
 ConditionsComfort  
Time TempWeatherWind HumidityBarometerVisibility
11:00 PM
Sun, Aug 28
69 °FPassing clouds.1 mph87%30.08 "Hg9 mi
10:00 PM71 °FMild.1 mph82%30.04 "HgN/A
9:00 PM73 °FMild.No wind70%30.01 "HgN/A
8:00 PM74 °FPartly sunny.2 mph67%29.98 "Hg16 mi
7:00 PM78 °FWarm.5 mph56%29.96 "HgN/A
6:00 PM81 °FWarm.8 mph48%29.95 "HgN/A
5:00 PM86 °FScattered clouds.13 mph36%29.93 "Hg16 mi
4:00 PM87 °FPleasantly warm.12 mph38%29.92 "HgN/A
3:00 PM87 °FPleasantly warm.12 mph38%29.93 "HgN/A
2:00 PM85 °FScattered clouds.12 mph46%29.96 "Hg16 mi
1:00 PM82 °FWarm.6 mph45%29.99 "HgN/A
12:00 PM79 °FWarm.2 mph48%30.02 "HgN/A
11:00 AM76 °FMild.2 mph56%30.06 "HgN/A
10:00 AM71 °FMild.1 mph63%30.09 "HgN/A
9:00 AM70 °FMild.5 mph67%30.09 "HgN/A
8:00 AM64 °FScattered clouds.2 mph83%30.12 "Hg16 mi
7:00 AM64 °FMild.2 mph85%30.11 "HgN/A
6:00 AM64 °FMild.No wind90%30.10 "HgN/A
5:00 AM65 °FPassing clouds.1 mph84%30.08 "Hg11 mi
4:00 AM67 °FMild.2 mph81%30.07 "HgN/A
3:00 AM66 °FMild.1 mph84%30.08 "HgN/A
2:00 AM68 °FClear.1 mph79%30.08 "Hg12 mi
1:00 AM69 °FMild.2 mph80%30.07 "HgN/A
12:00 AM70 °FMild.3 mph74%30.06 "HgN/A
Weather by CustomWeather, © 2016

See weather overviewHow to use our weather pages